User: anonymous
Location: Unspecified
(0.0000°N, 0.0000°E)
Time: 09:05:35
(UTC+02:00)
Language:

Gbstr 26 Del rocket - Orbit

View from above orbital plane
View from above orbital plane
View from above satellite
View from above satellite

Ground track
Ground track

The orbit data is extracted from the following two-line orbital elements,

1 25876U 99041E   14108.40752899  .00002018  00000-0  39027-3 0  3516
2 25876 051.7664 191.5010 0541258 263.4133 173.8471 14.01861239752339
Epoch (UTC): 18 April 2014 09:46:50
Eccentricity: 0.0541258
inclination: 51.7664°
perigee height: 494 km
apogee height: 1280 km
right ascension of ascending node: 191.5010°
argument of perigee: 263.4133°
revolutions per day: 14.01861239
mean anomaly at epoch: 173.8471°
orbit number at epoch: 75233

The dashed part of the orbit path shows where the satellite is in the earth's shadow,  

DLR